Starlink 4202

operational
NORAD ID: 52848 Int'l Des: 2022-062 Owner: SPXS Country: US Constellation: starlink
LEOCIRCULAR

Starlink 4202について

説明を読み込み中...

リアルタイム位置

3D地球を読み込み中...

次回通過

高度履歴

Altitude vs Time

uPlot chart will show altitude changes over time

軌道要素

1 52848U 22062U 25350.33546606 .00000789 00000-0 67641-4 0 9999
2 52848 53.2198 48.3140 0001295 98.3778 261.7361 15.08839458193208
Epoch: Dec 16, 2025 • Age: 13 hours

現在のステータス

高度 546.2 km
速度 7.59 km/s
衛星直下点 -21.06°S, 6.2°W
打ち上げ日 Jun 17, 2022
運用期間 3.4 years
タイプ internet

技術仕様

分類 Payload
質量 297.00 kg
乾燥質量 275.00 kg
総質量 297.00 kg
長さ 0.20 m
直径 2.80 m
スパン 9.00 m
形状 Box + pan
製造者 SPXS
バスタイプ Starlink
フェーズステータス In Orbit
所有者/国 SPXS/US

大規模コンステレーション

Loading constellations...